Regional Weather Roundup
Issued by NWS

Home | Current Version | Previous Version | Graphics & Text | Print | Product List | Glossary On
Versions: 1 2 3 4 5 6 7 8 9 10 11 12 13 14 15 16 17 18 19 20 21 22 23 24 25 26 27 28 29 30 31 32 33 34 35 36 37 38 39 40 41 42 43 44 45 46 47 48 49 50
104
ASUS43 KFSD 180110
RWRSD

WEATHER ROUNDUP FOR SOUTH DAKOTA
NATIONAL WEATHER SERVICE SIOUX FALLS SD
700 PM CST SAT FEB 17 2018

NOTE: "FAIR" INDICATES FEW OR NO CLOUDS BELOW 12,000 FEET WITH NO
SIGNIFICANT WEATHER AND/OR OBSTRUCTIONS TO VISIBILITY.


SDZ001>005-009-010-012>017-180200-
NORTHWEST AND NORTH CENTRAL SOUTH DAKOTA

CITY           SKY/WX    TMP DP  RH WIND       PRES   REMARKS
BUFFALO          N/A     16  10  77 E7        29.74F WCI   6
FAITH            N/A     16  12  84 SE10      29.88F WCI   4
MOBRIDGE       MOCLDY    18  10  71 N3        29.94F
$$

SDZ012>016-024>037-041>051-057-063-072>074-180200-
SOUTHWEST AND SOUTH CENTRAL SOUTH DAKOTA

CITY           SKY/WX    TMP DP  RH WIND       PRES   REMARKS
RAPID CTY ARPT MOCLDY    24  18  77 CALM      29.84F
PIERRE         MOCLDY    17  15  92 SE5       29.98F WCI  10
CUSTER         MOCLDY    26  16  65 VRB3      29.73F
ELLSWORTH AFB  MOCLDY    23  19  84 SE5       29.82  WCI  17
PHILIP         MOCLDY    22  18  85 E9        29.93S WCI  12
PINE RIDGE     MOCLDY    35  20  54 CALM      29.81F
SPEARFISH        N/A     21  18  86 N3        29.73F
WINNER         FAIR      29  22  75 E9        29.97F WCI  20
$$

SDZ004>011-016>023-039-040-180200-
NORTHEAST SOUTH DAKOTA

CITY           SKY/WX    TMP DP  RH WIND       PRES   REMARKS
ABERDEEN       PTCLDY    15   8  73 SW8       30.02R WCI   4
WATERTOWN      CLEAR     20  14  77 W8        30.01R WCI  10
BROOKINGS      CLEAR     24  18  77 W8        30.03R WCI  15
SISSETON         N/A     19   5  54 NW7       30.00R WCI  10
$$

SDZ017-020-022-023-036>040-048>070-180200-
SOUTHEAST SOUTH DAKOTA

CITY           SKY/WX    TMP DP  RH WIND       PRES   REMARKS
SIOUX FALLS    PTCLDY    25  19  78 W5        30.07R WCI  19
HURON          PTCLDY    22  17  81 S6        30.04S WCI  14
CHAMBERLAIN    MOCLDY    26  23  87 E5        30.01F WCI  21
MITCHELL       PTCLDY    25  20  81 S5        30.07S WCI  19
YANKTON        CLEAR     29  24  82 CALM      30.10R
$$

ABBREVIATIONS USED IN REMARKS
   TC - TEMPERATURE IN CELSIUS
  WCI - WIND CHILL INDEX
   HX - HEAT INDEX
  VSB - VISIBILITY





USA.gov is the U.S. government's official web portal to all federal, state and local government web resources and services.